| time (UTC) | temp C | wind direction | speed KPH | gust KPH | rain 1hr cm | rain 24hr cm | rain mn cm | humidity % | barometer mb |
| 20260503213406 | 17 | 258 | 4.8 | 6.4 | 0.00 | 0.00 | 0.00 | 41 | 1011.9 |
| 20260503212902 | 17 | 162 | 6.4 | 11.3 | 0.00 | 0.00 | 0.00 | 40 | 1012.2 |
| 20260503212400 | 17 | 143 | 1.6 | 3.2 | 0.00 | 0.00 | 0.00 | 40 | 1012.6 |
| 20260503211857 | 17 | 173 | 3.2 | 6.4 | 0.00 | 0.00 | 0.00 | 40 | 1012.5 |
| 20260503211354 | 17 | 285 | 3.2 | 4.8 | 0.00 | 0.00 | 0.00 | 40 | 1012.6 |
| 20260503210848 | 17 | 165 | 0.0 | 0.0 | 0.00 | 0.00 | 0.00 | 42 | 1012.7 |
| 20260503210347 | 17 | 227 | 3.2 | 4.8 | 0.00 | 0.00 | 0.00 | 41 | 1013.1 |
| 20260503205841 | 17 | 192 | 3.2 | 3.2 | 0.00 | 0.00 | 0.00 | 40 | 1013.0 |
| 20260503205338 | 17 | 280 | 6.4 | 12.9 | 0.00 | 0.00 | 0.00 | 40 | 1013.4 |
| 20260503204834 | 17 | 196 | 1.6 | 3.2 | 0.00 | 0.00 | 0.00 | 40 | 1013.2 |
| 20260503204332 | 17 | 131 | 4.8 | 6.4 | 0.00 | 0.00 | 0.00 | 40 | 1013.3 |
| 20260503203829 | 17 | 174 | 6.4 | 11.3 | 0.00 | 0.00 | 0.00 | 40 | 1013.5 |
| 20260503203327 | 17 | 260 | 8.0 | 16.1 | 0.00 | 0.00 | 0.00 | 40 | 1013.9 |
| 20260503202823 | 17 | 153 | 4.8 | 6.4 | 0.00 | 0.00 | 0.00 | 40 | 1014.2 |
| 20260503202321 | 17 | 180 | 3.2 | 4.8 | 0.00 | 0.00 | 0.00 | 40 | 1014.1 |
| 20260503201820 | 17 | 189 | 6.4 | 11.3 | 0.00 | 0.00 | 0.00 | 39 | 1014.4 |
| 20260503201316 | 17 | 134 | 3.2 | 3.2 | 0.00 | 0.00 | 0.00 | 39 | 1014.2 |
| 20260503200814 | 17 | 133 | 0.0 | 0.0 | 0.00 | 0.00 | 0.00 | 39 | 1014.1 |
| 20260503200309 | 18 | 181 | 6.4 | 9.7 | 0.00 | 0.00 | 0.00 | 39 | 1014.5 |
| 20260503195807 | 18 | 272 | 6.4 | 9.7 | 0.00 | 0.00 | 0.00 | 38 | 1014.6 |
| 20260503195304 | 18 | 259 | 12.9 | 16.1 | 0.00 | 0.00 | 0.00 | 36 | 1014.8 |
| 20260503194801 | 18 | 169 | 6.4 | 9.7 | 0.00 | 0.00 | 0.00 | 36 | 1015.0 |
| 20260503194256 | 17 | 154 | 3.2 | 4.8 | 0.00 | 0.00 | 0.00 | 40 | 1014.9 |
| 20260503193753 | 16 | 298 | 4.8 | 12.9 | 0.00 | 0.00 | 0.00 | 40 | 1015.4 |
| 20260503193249 | 17 | 183 | 6.4 | 11.3 | 0.00 | 0.00 | 0.00 | 39 | 1015.4 |
| 20260503192745 | 17 | 114 | 3.2 | 4.8 | 0.00 | 0.00 | 0.00 | 39 | 1015.3 |
| 20260503192240 | 18 | 200 | 6.4 | 9.7 | 0.00 | 0.00 | 0.00 | 37 | 1015.2 |
| 20260503191737 | 17 | 199 | 1.6 | 3.2 | 0.00 | 0.00 | 0.00 | 38 | 1015.2 |
| 20260503191234 | 18 | 219 | 9.7 | 12.9 | 0.00 | 0.00 | 0.00 | 36 | 1015.1 |
| 20260503190731 | 18 | 130 | 4.8 | 6.4 | 0.00 | 0.00 | 0.00 | 38 | 1015.1 |
| 20260503190227 | 18 | 244 | 3.2 | 4.8 | 0.00 | 0.00 | 0.00 | 37 | 1015.1 |
| 20260503185725 | 18 | 194 | 1.6 | 3.2 | 0.00 | 0.00 | 0.00 | 37 | 1015.1 |
| 20260503185220 | 17 | 173 | 0.0 | 1.6 | 0.00 | 0.00 | 0.00 | 39 | 1015.7 |
| 20260503184715 | 17 | 152 | 4.8 | 6.4 | 0.00 | 0.00 | 0.00 | 41 | 1015.4 |
| 20260503184212 | 17 | 279 | 9.7 | 14.5 | 0.00 | 0.00 | 0.00 | 39 | 1015.4 |
| 20260503183708 | 17 | 253 | 3.2 | 16.1 | 0.00 | 0.00 | 0.00 | 38 | 1015.8 |
| 20260503183206 | 17 | 279 | 4.8 | 20.9 | 0.00 | 0.00 | 0.00 | 37 | 1015.8 |
| 20260503182704 | 17 | 215 | 3.2 | 4.8 | 0.00 | 0.00 | 0.00 | 38 | 1016.0 |
| 20260503182202 | 16 | 156 | 3.2 | 4.8 | 0.00 | 0.00 | 0.00 | 38 | 1016.1 |
| 20260503181658 | 16 | 160 | 0.0 | 1.6 | 0.00 | 0.00 | 0.00 | 38 | 1016.3 |
| 20260503181155 | 16 | 117 | 3.2 | 4.8 | 0.00 | 0.00 | 0.00 | 39 | 1016.4 |
| 20260503180651 | 16 | 188 | 1.6 | 3.2 | 0.00 | 0.00 | 0.00 | 39 | 1016.4 |
| 20260503180150 | 16 | 155 | 3.2 | 3.2 | 0.00 | 0.00 | 0.00 | 40 | 1016.5 |
| 20260503175647 | 16 | 167 | 4.8 | 9.7 | 0.00 | 0.00 | 0.00 | 39 | 1016.6 |
| 20260503175144 | 16 | 182 | 3.2 | 4.8 | 0.00 | 0.00 | 0.00 | 36 | 1016.9 |
| 20260503174640 | 17 | 169 | 6.4 | 6.4 | 0.00 | 0.00 | 0.00 | 35 | 1016.7 |
| 20260503174137 | 17 | 136 | 1.6 | 3.2 | 0.00 | 0.00 | 0.00 | 36 | 1016.8 |
| 20260503173632 | 16 | 157 | 0.0 | 0.0 | 0.00 | 0.00 | 0.00 | 38 | 1017.1 |
| 20260503173129 | 16 | 152 | 3.2 | 3.2 | 0.00 | 0.00 | 0.00 | 38 | 1017.2 |
| 20260503172626 | 16 | 161 | 0.0 | 1.6 | 0.00 | 0.00 | 0.00 | 38 | 1017.3 |
| 20260503172124 | 16 | 191 | 3.2 | 3.2 | 0.00 | 0.00 | 0.00 | 37 | 1017.2 |
| 20260503171620 | 17 | 134 | 3.2 | 4.8 | 0.00 | 0.00 | 0.00 | 35 | 1017.2 |
| 20260503171117 | 16 | 166 | 3.2 | 3.2 | 0.00 | 0.00 | 0.00 | 38 | 1017.3 |
| 20260503170614 | 16 | 179 | 4.8 | 9.7 | 0.00 | 0.00 | 0.00 | 36 | 1017.4 |
| 20260503170111 | 16 | 163 | 0.0 | 0.0 | 0.00 | 0.00 | 0.00 | 35 | 1017.2 |
| 20260503151006 | 15 | 136 | 1.6 | 3.2 | 0.00 | 0.00 | 0.00 | 41 | 1018.8 |
| 20260503150503 | 15 | 173 | 0.0 | 1.6 | 0.00 | 0.00 | 0.00 | 41 | 1018.9 |
| 20260503131355 | 10 | 162 | 0.0 | 1.6 | 0.00 | 0.00 | 0.00 | 54 | 1019.2 |
| 20260503130853 | 9 | 260 | 3.2 | 4.8 | 0.00 | 0.00 | 0.00 | 55 | 1019.2 |
| 20260503130350 | 9 | 173 | 6.4 | 6.4 | 0.00 | 0.00 | 0.00 | 54 | 1019.3 |
| 20260503110744 | 1 | 159 | 0.0 | 0.0 | 0.00 | 0.00 | 0.00 | 88 | 1018.8 |
| 20260503110241 | 1 | 161 | 0.0 | 0.0 | 0.00 | 0.00 | 0.00 | 87 | 1018.8 |
| 20260503100207 | 1 | 162 | 0.0 | 0.0 | 0.00 | 0.00 | 0.00 | 91 | 1018.2 |
| 20260503090131 | 0 | 160 | 0.0 | 0.0 | 0.00 | 0.00 | 0.00 | 95 | 1018.2 |
| 20260503081602 | 0 | 160 | 0.0 | 0.0 | 0.00 | 0.00 | 0.00 | 95 | 1018.2 |
| 20260503081059 | 0 | 160 | 0.0 | 0.0 | 0.00 | 0.00 | 0.00 | 95 | 1018.2 |
| 20260503080554 | 0 | 160 | 0.0 | 0.0 | 0.00 | 0.00 | 0.00 | 95 | 1018.5 |
| 20260503072529 | 0 | 160 | 0.0 | 0.0 | 0.00 | 0.00 | 0.00 | 94 | 1018.3 |
| 20260503072026 | 0 | 160 | 0.0 | 0.0 | 0.00 | 0.00 | 0.00 | 94 | 1018.3 |
| 20260503071523 | 0 | 160 | 0.0 | 0.0 | 0.00 | 0.00 | 0.00 | 94 | 1018.5 |
| 20260503071020 | 0 | 160 | 0.0 | 0.0 | 0.00 | 0.00 | 0.00 | 94 | 1018.3 |
| 20260503070516 | 0 | 160 | 0.0 | 0.0 | 0.00 | 0.00 | 0.00 | 94 | 1018.5 |
| 20260503054939 | 1 | 160 | 0.0 | 0.0 | 0.00 | 0.00 | 0.00 | 93 | 1018.9 |
| 20260503054435 | 1 | 160 | 0.0 | 0.0 | 0.00 | 0.00 | 0.00 | 92 | 1019.0 |
| 20260503053933 | 1 | 160 | 0.0 | 0.0 | 0.00 | 0.00 | 0.00 | 92 | 1019.0 |
| 20260503053431 | 1 | 160 | 0.0 | 0.0 | 0.00 | 0.00 | 0.00 | 92 | 1019.0 |
| 20260503052927 | 1 | 160 | 0.0 | 0.0 | 0.00 | 0.00 | 0.00 | 91 | 1019.1 |
| 20260503052425 | 1 | 160 | 0.0 | 0.0 | 0.00 | 0.00 | 0.00 | 91 | 1019.1 |
| 20260503051921 | 1 | 160 | 0.0 | 0.0 | 0.00 | 0.00 | 0.00 | 90 | 1019.0 |
| 20260503051417 | 1 | 160 | 0.0 | 0.0 | 0.00 | 0.00 | 0.00 | 90 | 1019.0 |
| 20260503050914 | 1 | 160 | 0.0 | 0.0 | 0.00 | 0.00 | 0.00 | 90 | 1018.9 |
| 20260503050410 | 1 | 160 | 0.0 | 0.0 | 0.00 | 0.00 | 0.00 | 89 | 1018.9 |
| 20260503045908 | 1 | 160 | 0.0 | 0.0 | 0.00 | 0.00 | 0.00 | 88 | 1019.1 |
| 20260503045405 | 1 | 160 | 0.0 | 0.0 | 0.00 | 0.00 | 0.00 | 88 | 1019.2 |
| 20260503044902 | 2 | 160 | 0.0 | 0.0 | 0.00 | 0.00 | 0.00 | 88 | 1019.1 |
| 20260503044359 | 2 | 160 | 0.0 | 0.0 | 0.00 | 0.00 | 0.00 | 89 | 1019.2 |
| 20260503043856 | 1 | 160 | 0.0 | 0.0 | 0.00 | 0.00 | 0.00 | 89 | 1019.1 |
| 20260503043353 | 1 | 160 | 0.0 | 0.0 | 0.00 | 0.00 | 0.00 | 88 | 1018.9 |
| 20260503042849 | 1 | 160 | 0.0 | 0.0 | 0.00 | 0.00 | 0.00 | 87 | 1018.9 |
| 20260503042346 | 2 | 160 | 0.0 | 0.0 | 0.00 | 0.00 | 0.00 | 87 | 1018.9 |
| 20260503041841 | 2 | 160 | 0.0 | 0.0 | 0.00 | 0.00 | 0.00 | 86 | 1019.2 |
| 20260503041339 | 2 | 160 | 0.0 | 0.0 | 0.00 | 0.00 | 0.00 | 86 | 1019.0 |
| 20260503040837 | 2 | 160 | 0.0 | 0.0 | 0.00 | 0.00 | 0.00 | 86 | 1018.9 |
| 20260503040334 | 2 | 160 | 0.0 | 0.0 | 0.00 | 0.00 | 0.00 | 86 | 1018.8 |
| 20260503035831 | 2 | 160 | 0.0 | 0.0 | 0.00 | 0.00 | 0.00 | 86 | 1018.9 |
| 20260503035328 | 2 | 160 | 0.0 | 0.0 | 0.00 | 0.00 | 0.00 | 85 | 1019.1 |
| 20260503034825 | 2 | 160 | 0.0 | 0.0 | 0.00 | 0.00 | 0.00 | 85 | 1018.8 |
| 20260503034322 | 2 | 160 | 0.0 | 0.0 | 0.00 | 0.00 | 0.00 | 85 | 1019.0 |
| 20260503033820 | 2 | 160 | 0.0 | 0.0 | 0.00 | 0.00 | 0.00 | 85 | 1019.0 |
| 20260503033317 | 2 | 160 | 0.0 | 0.0 | 0.00 | 0.00 | 0.00 | 83 | 1019.1 |
| 20260503032815 | 2 | 160 | 0.0 | 0.0 | 0.00 | 0.00 | 0.00 | 82 | 1018.9 |
| 20260503032314 | 2 | 160 | 0.0 | 0.0 | 0.00 | 0.00 | 0.00 | 81 | 1019.0 |
| 20260503031810 | 3 | 160 | 0.0 | 0.0 | 0.00 | 0.00 | 0.00 | 80 | 1019.2 |
| 20260503031309 | 3 | 160 | 0.0 | 0.0 | 0.00 | 0.00 | 0.00 | 80 | 1019.0 |
| 20260503030804 | 3 | 160 | 0.0 | 0.0 | 0.00 | 0.00 | 0.00 | 80 | 1019.0 |
| 20260503030301 | 3 | 160 | 0.0 | 0.0 | 0.00 | 0.00 | 0.00 | 78 | 1019.1 |
| 20260503025758 | 3 | 160 | 0.0 | 0.0 | 0.00 | 0.00 | 0.00 | 77 | 1019.0 |
| 20260503025255 | 3 | 160 | 0.0 | 0.0 | 0.00 | 0.00 | 0.00 | 76 | 1019.2 |
| 20260503024752 | 3 | 160 | 0.0 | 0.0 | 0.00 | 0.00 | 0.00 | 76 | 1019.3 |
| 20260503024249 | 3 | 160 | 0.0 | 0.0 | 0.00 | 0.00 | 0.00 | 75 | 1019.0 |
| 20260503023746 | 3 | 160 | 0.0 | 0.0 | 0.00 | 0.00 | 0.00 | 74 | 1019.0 |
| 20260503023243 | 4 | 160 | 0.0 | 0.0 | 0.00 | 0.00 | 0.00 | 73 | 1019.0 |
| 20260503022740 | 4 | 160 | 0.0 | 0.0 | 0.00 | 0.00 | 0.00 | 71 | 1019.0 |
| 20260503022239 | 4 | 159 | 0.0 | 0.0 | 0.00 | 0.00 | 0.00 | 71 | 1018.8 |
| 20260503021737 | 4 | 159 | 0.0 | 0.0 | 0.00 | 0.00 | 0.00 | 70 | 1018.9 |
| 20260503021232 | 5 | 159 | 0.0 | 0.0 | 0.00 | 0.00 | 0.00 | 69 | 1019.1 |
| 20260503020731 | 5 | 163 | 0.0 | 0.0 | 0.00 | 0.00 | 0.00 | 68 | 1018.9 |
| 20260503020228 | 5 | 164 | 0.0 | 0.0 | 0.00 | 0.00 | 0.00 | 69 | 1018.8 |
| 20260503015724 | 5 | 164 | 0.0 | 0.0 | 0.00 | 0.00 | 0.00 | 69 | 1018.6 |
| 20260503015221 | 5 | 164 | 0.0 | 0.0 | 0.00 | 0.00 | 0.00 | 67 | 1018.2 |
| 20260503014717 | 5 | 164 | 0.0 | 0.0 | 0.00 | 0.00 | 0.00 | 66 | 1018.3 |
| 20260503014215 | 5 | 164 | 0.0 | 0.0 | 0.00 | 0.00 | 0.00 | 63 | 1018.5 |
| 20260503013712 | 5 | 164 | 0.0 | 0.0 | 0.00 | 0.00 | 0.00 | 61 | 1018.3 |
| 20260503013210 | 5 | 164 | 0.0 | 0.0 | 0.00 | 0.00 | 0.00 | 58 | 1018.6 |
| 20260503012707 | 5 | 164 | 0.0 | 0.0 | 0.00 | 0.00 | 0.00 | 58 | 1018.2 |
| 20260503012204 | 6 | 164 | 0.0 | 0.0 | 0.00 | 0.00 | 0.00 | 56 | 1018.2 |
| 20260503011700 | 6 | 164 | 0.0 | 0.0 | 0.00 | 0.00 | 0.00 | 54 | 1018.3 |
| 20260503011157 | 6 | 164 | 0.0 | 0.0 | 0.00 | 0.00 | 0.00 | 53 | 1018.3 |
| 20260503010654 | 7 | 164 | 0.0 | 0.0 | 0.00 | 0.00 | 0.00 | 51 | 1018.2 |
| 20260503010151 | 7 | 164 | 0.0 | 0.0 | 0.00 | 0.00 | 0.00 | 49 | 1018.2 |
| 20260503005648 | 7 | 164 | 0.0 | 0.0 | 0.00 | 0.00 | 0.00 | 48 | 1018.2 |
| 20260503005145 | 8 | 164 | 0.0 | 0.0 | 0.00 | 0.00 | 0.00 | 46 | 1018.3 |
| 20260503004641 | 8 | 164 | 0.0 | 0.0 | 0.00 | 0.00 | 0.00 | 44 | 1018.1 |
| 20260503004140 | 8 | 163 | 0.0 | 0.0 | 0.00 | 0.00 | 0.00 | 43 | 1018.2 |
| 20260503003636 | 9 | 160 | 0.0 | 0.0 | 0.00 | 0.00 | 0.00 | 43 | 1018.2 |
| 20260503003133 | 9 | 169 | 0.0 | 0.0 | 0.00 | 0.00 | 0.00 | 39 | 1018.2 |
| 20260503002630 | 9 | 74 | 1.6 | 3.2 | 0.00 | 0.00 | 0.00 | 39 | 1018.5 |
| 20260503002127 | 10 | 124 | 0.0 | 1.6 | 0.00 | 0.00 | 0.00 | 40 | 1018.3 |
| 20260503001623 | 10 | 132 | 1.6 | 1.6 | 0.00 | 0.00 | 0.00 | 40 | 1018.0 |
| 20260503001120 | 10 | 157 | 0.0 | 0.0 | 0.00 | 0.00 | 0.00 | 38 | 1018.0 |
| 20260503000618 | 10 | 185 | 3.2 | 4.8 | 0.00 | 0.00 | 0.00 | 36 | 1017.9 |
| 20260503000115 | 10 | 97 | 1.6 | 1.6 | 0.00 | 0.00 | 0.00 | 38 | 1017.7 |
| 20260502235611 | 10 | 146 | 0.0 | 1.6 | 0.00 | 0.00 | 0.00 | 39 | 1017.9 |
| 20260502235110 | 10 | 141 | 0.0 | 0.0 | 0.00 | 0.00 | 0.00 | 38 | 1017.8 |
| 20260502234605 | 10 | 163 | 0.0 | 0.0 | 0.00 | 0.00 | 0.00 | 37 | 1017.8 |
| 20260502234103 | 10 | 95 | 1.6 | 3.2 | 0.00 | 0.00 | 0.00 | 36 | 1017.7 |
| 20260502233603 | 10 | 98 | 4.8 | 6.4 | 0.00 | 0.00 | 0.00 | 36 | 1017.9 |
| 20260502233101 | 11 | 173 | 1.6 | 4.8 | 0.00 | 0.00 | 0.00 | 36 | 1017.9 |
| 20260502232556 | 11 | 60 | 1.6 | 1.6 | 0.00 | 0.00 | 0.00 | 37 | 1017.9 |
| 20260502232054 | 11 | 156 | 3.2 | 3.2 | 0.00 | 0.00 | 0.00 | 36 | 1017.9 |
| 20260502231550 | 11 | 42 | 3.2 | 3.2 | 0.00 | 0.00 | 0.00 | 36 | 1017.8 |
| 20260502231049 | 11 | 31 | 6.4 | 9.7 | 0.00 | 0.00 | 0.00 | 35 | 1017.8 |
| 20260502230547 | 11 | 42 | 3.2 | 4.8 | 0.00 | 0.00 | 0.00 | 35 | 1017.9 |
| 20260502230045 | 11 | 157 | 0.0 | 0.0 | 0.00 | 0.00 | 0.00 | 36 | 1018.0 |
| 20260502225540 | 11 | 80 | 3.2 | 4.8 | 0.00 | 0.00 | 0.00 | 34 | 1017.9 |
| 20260502225037 | 11 | 218 | 4.8 | 4.8 | 0.00 | 0.00 | 0.00 | 35 | 1018.0 |
| 20260502224533 | 11 | 105 | 0.0 | 0.0 | 0.00 | 0.00 | 0.00 | 37 | 1018.0 |
| 20260502224031 | 11 | 62 | 4.8 | 6.4 | 0.00 | 0.00 | 0.00 | 35 | 1017.9 |
| 20260502223528 | 11 | 109 | 3.2 | 3.2 | 0.00 | 0.00 | 0.00 | 37 | 1018.0 |
| 20260502223027 | 11 | 60 | 1.6 | 3.2 | 0.00 | 0.00 | 0.00 | 38 | 1017.9 |
| 20260502222523 | 11 | 113 | 1.6 | 3.2 | 0.00 | 0.00 | 0.00 | 37 | 1017.6 |
| 20260502222020 | 12 | 42 | 6.4 | 9.7 | 0.00 | 0.00 | 0.00 | 34 | 1018.1 |
| 20260502221515 | 13 | 101 | 8.0 | 11.3 | 0.00 | 0.00 | 0.00 | 31 | 1017.8 |
| 20260502221013 | 12 | 87 | 1.6 | 3.2 | 0.00 | 0.00 | 0.00 | 35 | 1017.8 |
| 20260502220508 | 13 | 52 | 3.2 | 6.4 | 0.00 | 0.00 | 0.00 | 35 | 1018.0 |
| 20260502220005 | 13 | 79 | 1.6 | 3.2 | 0.00 | 0.00 | 0.00 | 35 | 1017.9 |
| 20260502215503 | 12 | 218 | 4.8 | 4.8 | 0.00 | 0.00 | 0.00 | 35 | 1017.9 |
| 20260502214959 | 12 | 49 | 4.8 | 9.7 | 0.00 | 0.00 | 0.00 | 35 | 1017.8 |
| 20260502214456 | 13 | 96 | 6.4 | 12.9 | 0.00 | 0.00 | 0.00 | 35 | 1017.6 |
| 20260502213954 | 13 | 94 | 1.6 | 3.2 | 0.00 | 0.00 | 0.00 | 36 | 1017.6 |